AKDT,Max TemperatureF,Mean TemperatureF,Min TemperatureF,Max Dew PointF,MeanDew PointF,Min DewpointF,Max Humidity, Mean Humidity, Min Humidity, Max Sea Level PressureIn, Mean Sea Level PressureIn, Min Sea Level PressureIn, Max VisibilityMiles, Mean VisibilityMiles, Min VisibilityMiles, Max Wind SpeedMPH, Mean Wind SpeedMPH, Max Gust SpeedMPH,PrecipitationIn, CloudCover, Events, WindDirDegrees
2011-10-1,51,43,35,41,38,30,100,81,44,30.05,29.98,29.88,10,10,5,7,2,,0.00,3,,105
2011-10-2,51,42,32,39,36,30,100,81,50,29.97,29.93,29.87,10,10,1,7,2,,0.00,2,,95
2011-10-3,46,39,32,39,35,28,100,87,66,29.78,29.55,29.25,10,10,10,7,2,,0.00,3,,103
2011-10-4,53,46,39,45,42,37,100,78,58,29.52,29.37,29.20,10,10,9,14,5,24,0.00,7,,144
2011-10-5,48,42,35,43,39,36,100,93,76,29.78,29.67,29.56,10,7,0,6,1,,0.00,5,,74
2011-10-6,46,42,37,45,42,36,100,94,87,29.87,29.83,29.80,10,10,2,6,1,,0.00,8,,314
2011-10-7,48,45,42,45,44,41,100,94,87,30.09,30.02,29.91,10,9,3,7,1,,0.00,7,,142
2011-10-8,46,44,42,43,42,41,93,91,81,30.01,29.66,29.34,10,10,5,9,3,,0.00,7,,86
2011-10-9,48,45,42,45,43,41,100,93,87,29.75,29.65,29.41,10,9,5,8,2,,0.00,8,,106
2011-10-10,48,44,39,43,40,37,100,87,71,29.64,29.40,29.23,10,10,1,7,2,,0.00,6,,103
2011-10-11,48,45,42,46,43,39,100,92,87,29.43,29.32,29.23,10,10,10,10,3,,0.00,8,,95
2011-10-12,48,47,46,46,45,45,100,91,87,29.93,29.71,29.50,10,7,5,6,2,,0.00,8,,60
2011-10-13,46,42,39,45,41,37,100,88,76,30.11,30.08,30.01,10,10,5,12,2,,0.00,7,,144
2011-10-14,44,42,39,39,38,37,100,89,76,30.13,30.11,30.08,10,10,2,7,1,,0.00,7,,56
2011-10-15,44,42,39,39,37,36,100,84,76,30.08,30.04,29.97,10,10,7,9,2,17,0.00,8,,149
2011-10-16,46,42,39,43,39,36,93,84,76,29.96,29.94,29.91,10,9,4,9,4,,0.00,8,,62
2011-10-17,50,46,42,46,44,39,100,93,87,29.94,29.91,29.86,10,7,4,10,2,,0.00,8,,95
2011-10-18,53,50,46,48,44,39,94,81,62,29.91,29.83,29.73,10,9,5,14,6,24,0.00,7,,180
2011-10-19,46,42,37,43,40,36,100,90,81,29.92,29.85,29.81,10,10,7,6,2,,0.00,7,,201
2011-10-20,46,42,37,41,38,36,100,89,76,30.02,30.00,29.94,10,10,4,9,1,,0.00,7,,163
2011-10-21,42,38,35,39,36,30,100,86,61,29.81,29.59,29.47,10,8,5,9,3,,0.00,7,,181
2011-10-22,44,42,41,41,39,37,93,84,76,29.71,29.64,29.56,10,8,5,12,3,23,0.00,8,,149
2011-10-23,42,40,39,41,39,37,100,90,81,29.91,29.83,29.78,10,8,5,5,1,,0.00,8,,74
2011-10-24,44,42,39,43,40,39,100,93,87,30.25,30.09,29.94,10,9,0,4,1,,0.00,8,,97
2011-10-25,46,42,39,41,39,37,100,86,71,30.30,30.12,29.74,10,9,2,14,3,23,0.00,8,,108
2011-10-26,44,40,37,39,37,34,100,87,76,29.93,29.70,29.54,10,8,3,14,2,22,0.00,8,,211
2011-10-27,44,42,41,39,37,34,93,82,66,30.01,29.93,29.62,10,10,5,13,4,20,0.00,8,,116
2011-10-28,46,44,41,41,38,34,93,81,62,29.54,29.16,28.96,10,7,2,25,11,38,0.00,8,,117
2011-10-29,44,42,41,41,38,36,93,84,76,29.67,29.54,29.38,10,6,4,15,4,26,0.00,8,,128
2011-10-30,46,42,39,41,38,36,93,85,71,29.69,29.55,29.47,10,9,3,15,6,23,0.00,8,,147
2011-10-31,44,40,37,39,36,32,93,80,66,30.24,30.12,29.92,10,10,10,12,3,18,0.00,7,,219